Franksville, WI (53126)

8:44 AM CST on February 08, 2016 (GMT -0600)
My Observatory 108th & 4-1/2 mile Rd | | Change Station
CLOSE
Current Station
Personal Weather Station
Location: Franksville, WI
Elevation: 810 ft
Nearby Weather Stations

Elev 810 ft 42.79 °N, 88.05 °W | Updated 1 second ago

Overcast
Overcast
29.3 °F
Feels Like 22 °F
N
7.0
Wind Variable Wind from NW
Gusts 11.5 mph

Today
High -- | Low -- °F
--% Chance of Precip.
Yesterday
High -- | Low -- °F
Precip. -- in
Pressure 29.64 in
Visibility 10.0 miles
Clouds Overcast 2100 ft
Windchill 22 °F
Dew Point 26 °F
Humidity 88%
Rainfall 0.00 in
Snow Depth Not available.
6:58 AM 5:13 PM
Waning Crescent, 0% visible
METAR KRAC 081353Z AUTO 29007KT 10SM OVC021 M01/M03 A2962 RMK AO2 SLP036 T10061033
Pressure 29.64 in
Visibility 10.0 miles
Clouds Overcast 2100 ft
Windchill 22 °F
Dew Point 26 °F
Humidity 88%
Rainfall 0.00 in
Snow Depth Not available.
6:58 AM 5:13 PM
Waning Crescent, 0% visible
METAR KRAC 081353Z AUTO 29007KT 10SM OVC021 M01/M03 A2962 RMK AO2 SLP036 T10061033

10-Day Weather Forecast

Almanac

Astronomy

Feb. 08, 2016 Rise Set
Actual Time
Civil Twilight
Nautical Twilight
Astronomical Twilight
Moon
Length of Visible Light
Length of Day
Tomorrow will be .
, % of the Moon is Illuminated

Today's Extremes

State Highs State Lows

Community

WunderPhotos

Upload Photos

1,891,437 photos uploaded!

WunderBlog® & News

Nearby

Air Quality

  Air Quality AQ Index Pollutant
Not available.

Snow Depth

Station Depth Elevation

Earthquake Activity

City Distance Mag. Time & Date
Minimum magnitude displayed is 2.5.

Coastal Water Temperatures

Place Temperature

Stations

Nearby Weather Stations

Station Location Temp. Windchill Dew Point Humidity Wind Precip. Elev Updated Type
                   

Watches & Warnings

There are currently no watches in effect.